Regional Weather Roundup
Issued by NWS

Home | Current Version | Previous Version | Graphics & Text | Print | Product List | Glossary On
Versions: 1 2 3 4 5 6 7 8 9 10 11 12 13 14 15 16 17 18 19 20 21 22 23 24 25 26 27 28 29 30 31 32 33 34 35 36 37 38 39 40 41 42 43 44 45 46 47 48 49 50
000
ASUS43 KFSD 290502
RWRSD

WEATHER ROUNDUP FOR SOUTH DAKOTA
NATIONAL WEATHER SERVICE SIOUX FALLS SD
1200 AM CDT MON MAY 29 2017

NOTE: "FAIR" INDICATES FEW OR NO CLOUDS BELOW 12,000 FEET WITH NO
SIGNIFICANT WEATHER AND/OR OBSTRUCTIONS TO VISIBILITY.


SDZ001>005-009-010-012>017-290600-
NORTHWEST AND NORTH CENTRAL SOUTH DAKOTA

CITY           SKY/WX    TMP DP  RH WIND       PRES   REMARKS
BUFFALO          N/A     50  34  54 NW13      30.02R
FAITH            N/A     51  34  52 N16       30.03R
MOBRIDGE       CLOUDY    56  39  53 N9        29.94S
$$

SDZ012>016-024>037-041>051-057-063-072>074-290600-
SOUTHWEST AND SOUTH CENTRAL SOUTH DAKOTA

CITY           SKY/WX    TMP DP  RH WIND       PRES   REMARKS
RAPID CTY ARPT MOCLDY    56  42  59 NW10      30.09R
PIERRE         CLEAR     49  37  63 N6        29.95S
CUSTER         CLOUDY    49  34  56 NW8       30.18S
ELLSWORTH AFB  CLOUDY    55  43  65 NW8       30.09R
PHILIP         MOCLDY    52  43  71 NW9       30.02R
PINE RIDGE     CLEAR     52  49  89 W6        30.10S
SPEARFISH      FAIR      57  41  54 W12G18    30.13S
WINNER         FAIR      57  48  72 W9        29.96R
$$

SDZ004>011-016>023-039-040-290600-
NORTHEAST SOUTH DAKOTA

CITY           SKY/WX    TMP DP  RH WIND       PRES   REMARKS
ABERDEEN       CLOUDY    53  40  61 NW9       29.88F
WATERTOWN      CLEAR     50  44  80 NW6       29.87S
BROOKINGS      CLEAR     51  45  79 NW8       29.89S
SISSETON         N/A     55  46  71 NW14      29.83S
$$

SDZ017-020-022-023-036>040-048>070-290600-
SOUTHEAST SOUTH DAKOTA

CITY           SKY/WX    TMP DP  RH WIND       PRES   REMARKS
SIOUX FALLS    PTCLDY    51  47  86 W6        29.89R
HURON          CLEAR     49  45  86 NW6       29.91S
MITCHELL       MOCLDY    57  49  74 CALM      29.92S
YANKTON        PTCLDY    57  47  69 SW7       29.91S
$$

ABBREVIATIONS USED IN REMARKS
   TC - TEMPERATURE IN CELSIUS
  WCI - WIND CHILL INDEX
   HX - HEAT INDEX
  VSB - VISIBILITY




USA.gov is the U.S. government's official web portal to all federal, state and local government web resources and services.